Regional Weather Roundup
Issued by NWS

Home | Current Version | Previous Version | Text Only | Print | Product List | Glossary On
Versions: 1 2 3 4 5 6 7 8 9 10 11 12 13 14 15 16 17 18 19 20 21 22 23 24 25 26 27 28 29 30 31 32 33 34 35 36 37 38 39 40 41 42 43 44 45 46 47 48 49 50
000
ASUS45 KBOU 281710
RWRCO

WEATHER ROUNDUP FOR COLORADO
NATIONAL WEATHER SERVICE PUEBLO CO
1100 AM MDT TUE JUL 28 2015

NOTE: "FAIR" INDICATES FEW OR NO CLOUDS BELOW 12000 FEET WITH NO
SIGNIFICANT WEATHER AND/OR OBSTRUCTIONS TO VISIBILITY.

COZ001>005-013-030-031-281800-
...NORTHWEST COLORADO...

CITY           SKY/WX    TMP DP  RH WIND       PRES   REMARKS
CRAIG          SUNNY     66  35  31 NW6       30.30S
HAYDEN         SUNNY     63  32  31 W3        30.30F
MEEKER         SUNNY     67  35  30 VRB6      30.28F
MOUNT WERNER   NOT AVBL
STEAMBOAT SPGS FAIR      61  35  37 CALM      30.31S
WALDEN         FAIR      61  30  31 SW6       30.33S
$$

COZ006>008-011-281800-
...WEST CENTRAL VALLEYS...

CITY           SKY/WX    TMP DP  RH WIND       PRES   REMARKS
GRAND JUNCTION SUNNY     77  34  21 W7        30.17S
MONTROSE       SUNNY     73  36  25 VRB6      30.25S
EAGLE          SUNNY     68  34  28 CALM      30.29F
RIFLE          SUNNY     72  35  25 CALM      30.22F
DELTA          NOT AVBL
NUCLA          FAIR      73  28  19 CALM      30.25F
$$

COZ017>023-064>068-281800-
...SOUTHWEST COLORADO...

CITY           SKY/WX    TMP DP  RH WIND       PRES   REMARKS
DURANGO        PTSUNNY   77  36  22 VRB7      30.26S
CORTEZ         SUNNY     80  33  18 SE3       30.20F
PAGOSA SPRINGS FAIR      72  32  23 CALM      30.34S
TELLURIDE      MOSUNNY   69  24  17 W6        30.44S
WOLF CREEK PAS NOT AVBL
$$

COZ009-010-012-014-032>034-037-058>063-281800-
...CENTRAL COLORADO...

CITY           SKY/WX    TMP DP  RH WIND       PRES   REMARKS
ASPEN          SUNNY     69  37  30 VRB5      30.33S
BUENA VISTA    FAIR      75  20  13 S3        30.30S
COPPER MTN     SUNNY     59  23  25 W20G28    30.60S
BERTHOUD PASS  FAIR      46  36  66 W20G47    30.62R
COTTONWOOD PAS SUNNY     70   9   9 SW16G32   30.45S
GUNNISON       SUNNY     66  34  30 SW5       30.36F
KREMMLING      SUNNY     68  32  26 CALM      30.32F
LEADVILLE      SUNNY     65  21  18 W14G23    30.43S
MONARCH PASS   SUNNY     54  23  30 W26G37    30.71S
SALIDA         FAIR      81  20  10 SW9G30    30.35S
NIWOT RIDGE    NOT AVBL
SUNLIGHT       SUNNY     61  37  41 CALM      30.57R
WILKERSON PASS SUNNY     63  21  20 SW12G20   30.57S
$$

COZ069>075-281800-
...SAN LUIS VALLEY/SANGRE DE CRISTO MOUNTAINS...

CITY           SKY/WX    TMP DP  RH WIND       PRES   REMARKS
ALAMOSA        SUNNY     75  41  29 VRB5      30.30S
LA VETA PASS   SUNNY     61  39  44 MISG      30.51R
SAGUACHE       SUNNY     72  41  33 S7        30.33F
$$

COZ035-036-038>040-281800-
...NORTHERN COLORADO FRONT RANGE...

CITY           SKY/WX    TMP DP  RH WIND       PRES   REMARKS
DENVER INTL AP MOSUNNY   74  34  23 E15       30.16R
DMNS CITY PARK NOT AVBL
AURORA         MOSUNNY   73  37  27 SE8       30.17S
FRONT RANGE AP MOSUNNY   72  34  25 E14       30.17R
ERIE MUNI ARPT FAIR      76  33  20 S8        30.13R
BOULDER MUN AP FAIR      75  39  27 E6        30.14R
CENTENNIAL     MOSUNNY   74  38  27 SE5       30.17S
BROOMFIELD     MOSUNNY   73  37  27 SE13      30.15F
LOVELAND       SUNNY     73  39  29 SE10G17   30.14S
LONGMONT         N/A    N/A N/A N/A MISG        N/A
$$

COZ041-046-047-076>085-087-088-281800-
...PIKES PEAK/PALMER DIVIDE AND SOUTHERN FOOTHILLS...

CITY           SKY/WX    TMP DP  RH WIND       PRES   REMARKS
COLO. SPRINGS  MOSUNNY   76  42  29 S16       30.22S
A. F. ACADEMY  SUNNY     75  41  29 SE15G21   30.22R
ELLICOTT       FAIR     N/A N/A N/A S12       30.22R
FALCON         FAIR      72  39  29 S10G17    30.27S
FORT CARSON    MOSUNNY   77  41  27 SE12G20   30.19S
LIMON          SUNNY     72  39  30 N15       30.18R
MONUMENT HILL  SUNNY     73  41  31 SE13G20   30.25R
TRINIDAD       SUNNY     78  36  21 VRB6      30.21S
$$

COZ042>045-048>051-090-091-281800-
...NORTHEAST COLORADO...

CITY           SKY/WX    TMP DP  RH WIND       PRES   REMARKS
GREELEY ARPT   SUNNY     75  39  27 SW5       30.14S
AKRON            N/A     75  35  23 N20G25    30.13F
BURLINGTON     SUNNY     75  42  30 N21       30.10S
WRAY           FAIR      79  38  22 N14G22    30.09S
STERLING       NOT AVBL
HOLYOKE        FAIR      81  37  21 N17       30.10R
FORT MORGAN    FAIR      78  37  22 N8        30.13S
$$

COZ086-089-092>099-281800-
...SOUTHEAST COLORADO...

CITY           SKY/WX    TMP DP  RH WIND       PRES   REMARKS
PUEBLO         SUNNY     82  39  21 SE12G17   30.13F
LA JUNTA       SUNNY     83  35  18 N6        30.12S
LAMAR          SUNNY     84  41  21 N15G21    30.07R
SPRINGFIELD      N/A     78  40  25 N18       30.11R
$$



USA.gov is the U.S. government's official web portal to all federal, state and local government web resources and services.